"datetime","# probes","# resolvers","can_ipv6","can_ipv6_prbs","can_tcp","can_tcp_prbs","can_tcp6","can_tcp6_prbs","does_ecs","does_ecs_prbs","does_flagday","does_flagday_prbs","does_rov4","does_rov4_prbs","does_rov6","does_rov6_prbs","does_qnamemin","doesnt_qnamemin","does_qnamemin_prbs","doesnt_qnamemin_prbs","does_nxdomain","doesnt_nxdomain","does_nxdomain_prbs","doesnt_nxdomain_prbs","has_ta_19036","hasnt_ta_19036","has_ta_19036_prbs","hasnt_ta_19036_prbs","has_ta_20326","hasnt_ta_20326","has_ta_20326_prbs","hasnt_ta_20326_prbs","can_rsamd5","cannot_rsamd5","broken_rsamd5","can_rsamd5_prbs","cannot_rsamd5_prbs","broken_rsamd5_prbs","can_dsa","cannot_dsa","broken_dsa","can_dsa_prbs","cannot_dsa_prbs","broken_dsa_prbs","can_rsasha1","cannot_rsasha1","broken_rsasha1","can_rsasha1_prbs","cannot_rsasha1_prbs","broken_rsasha1_prbs","can_dsansec3","cannot_dsansec3","broken_dsansec3","can_dsansec3_prbs","cannot_dsansec3_prbs","broken_dsansec3_prbs","can_rsansec3","cannot_rsansec3","broken_rsansec3","can_rsansec3_prbs","cannot_rsansec3_prbs","broken_rsansec3_prbs","can_rsasha256","cannot_rsasha256","broken_rsasha256","can_rsasha256_prbs","cannot_rsasha256_prbs","broken_rsasha256_prbs","can_rsasha512","cannot_rsasha512","broken_rsasha512","can_rsasha512_prbs","cannot_rsasha512_prbs","broken_rsasha512_prbs","can_eccgost","cannot_eccgost","broken_eccgost","can_eccgost_prbs","cannot_eccgost_prbs","broken_eccgost_prbs","can_ecdsa256","cannot_ecdsa256","broken_ecdsa256","can_ecdsa256_prbs","cannot_ecdsa256_prbs","broken_ecdsa256_prbs","can_ecdsa384","cannot_ecdsa384","broken_ecdsa384","can_ecdsa384_prbs","cannot_ecdsa384_prbs","broken_ecdsa384_prbs","can_ed25519","cannot_ed25519","broken_ed25519","can_ed25519_prbs","cannot_ed25519_prbs","broken_ed25519_prbs","can_ed448","cannot_ed448","broken_ed448","can_ed448_prbs","cannot_ed448_prbs","broken_ed448_prbs","can_gost","cannot_gost","broken_gost","can_gost_prbs","cannot_gost_prbs","broken_gost_prbs","can_sha384","cannot_sha384","broken_sha384","can_sha384_prbs","cannot_sha384_prbs","broken_sha384_prbs","is_internal","is_forwarding","is_external","is_internal_prbs","is_forwarding_prbs","is_external_prbs"
2017-06-20T23:59:59Z,151,216,197,136,216,151,194,134,86,68,0,0,0,0,0,0,2,214,1,150,0,214,0,150,0,0,0,0,0,0,0,0,86,42,88,59,48,68,127,89,0,86,72,1,214,2,0,150,20,1,126,89,0,85,73,1,213,2,0,149,20,1,213,2,0,149,20,1,213,2,0,149,20,1,83,130,2,56,98,2,215,0,0,150,19,1,215,0,0,150,19,1,0,213,2,0,150,2,0,212,3,0,150,3,172,42,2,124,47,2,216,0,0,151,19,1,105,43,68,84,36,49
2017-06-21T23:59:59Z,154,218,198,138,216,154,193,134,90,70,0,0,0,0,0,0,2,216,1,153,0,216,0,153,0,0,0,0,0,0,0,0,84,45,89,58,51,69,128,90,0,87,74,1,216,2,0,152,21,1,129,89,0,88,73,1,217,1,0,153,20,1,217,1,0,153,20,1,217,1,0,153,20,1,83,133,2,57,100,2,217,1,0,153,20,1,217,1,0,153,20,1,0,216,2,0,153,2,0,216,2,0,153,2,173,43,2,126,48,2,218,0,0,154,19,1,106,44,68,86,38,49
2017-06-22T23:59:59Z,155,220,200,139,220,155,196,136,91,71,0,0,0,0,0,0,2,218,1,154,0,218,0,154,0,0,0,0,0,0,0,0,87,44,89,59,51,70,130,90,0,88,75,1,218,2,0,153,21,1,130,90,0,88,75,1,218,2,0,153,21,1,218,2,0,153,21,1,218,2,0,153,21,1,85,133,2,57,102,2,219,1,0,154,20,1,219,1,0,154,20,1,0,218,2,0,154,2,0,218,2,0,154,2,174,44,2,125,50,2,220,0,0,155,19,1,107,45,68,86,40,48
2017-06-23T23:59:59Z,154,219,199,138,219,154,194,134,90,70,0,0,0,0,0,0,2,217,1,153,0,217,1,153,0,0,0,0,0,0,0,0,87,45,87,60,51,67,131,88,0,89,73,0,217,2,0,152,21,0,130,89,0,88,73,1,218,1,0,153,20,1,218,1,0,153,20,1,218,1,0,153,20,1,85,132,2,58,99,2,217,2,0,152,21,1,217,2,0,152,21,1,0,217,2,0,153,2,0,217,2,0,153,2,173,44,2,125,49,2,219,0,0,154,19,1,106,45,68,86,38,48
2017-06-24T23:59:59Z,152,216,197,137,213,151,193,135,88,70,0,0,0,0,0,0,3,213,2,151,0,214,0,151,0,0,0,0,0,0,0,0,84,44,88,58,50,67,128,88,0,87,72,0,215,1,0,151,20,0,128,88,0,87,72,0,215,1,0,151,20,0,215,1,0,151,20,0,215,1,0,151,20,0,81,133,2,55,100,1,215,1,0,151,20,0,215,1,0,151,20,0,0,214,2,0,151,1,0,214,2,0,151,1,170,44,2,123,49,1,216,0,0,152,19,0,103,46,67,83,40,47
2017-06-25T23:59:59Z,152,217,198,137,217,152,194,134,88,68,0,0,0,0,0,0,2,215,1,151,0,215,0,151,0,0,0,0,0,0,0,0,85,44,88,59,50,66,129,88,0,88,71,0,216,1,0,151,20,0,128,89,0,87,73,0,216,1,0,151,20,0,216,1,0,151,20,0,216,1,0,151,20,0,82,133,2,56,100,1,216,1,0,151,20,0,216,1,0,151,20,0,0,215,2,0,151,1,0,215,2,0,151,1,171,44,2,123,49,1,217,0,0,152,19,0,104,46,67,84,38,47
2017-06-26T23:59:59Z,152,217,198,137,217,152,194,134,94,73,0,0,0,0,0,0,2,215,1,151,0,217,0,152,0,0,0,0,0,0,0,0,84,44,89,58,50,67,128,89,0,87,72,0,216,1,0,151,20,0,129,88,0,88,71,0,217,0,0,152,19,1,217,0,0,152,19,1,217,0,0,152,19,1,83,132,2,57,98,2,217,0,0,152,19,1,217,0,0,152,19,0,0,215,2,0,151,1,0,215,2,0,151,1,172,43,2,124,48,2,217,0,0,152,18,2,103,47,67,83,40,47
2017-06-27T23:59:59Z,152,216,197,137,216,152,194,135,93,72,0,0,0,0,0,0,2,214,1,151,0,214,0,151,0,0,0,0,0,0,0,0,86,44,86,60,50,66,130,86,0,89,70,1,215,1,0,151,20,1,129,87,0,88,71,1,216,0,0,152,19,1,216,0,0,152,19,1,216,0,0,152,19,1,83,131,2,57,98,2,215,1,0,151,20,1,215,1,0,151,20,1,0,214,2,0,151,2,0,214,2,0,151,2,171,43,2,124,48,2,216,0,0,152,19,1,104,47,65,84,39,47
2017-06-28T23:59:59Z,151,214,196,137,214,151,191,134,91,70,0,0,0,0,0,0,3,211,2,150,0,212,0,150,0,0,0,0,0,0,0,0,84,44,86,59,50,66,127,87,0,87,71,1,212,2,0,149,21,1,125,87,2,86,71,2,212,2,0,149,21,1,212,2,0,149,21,1,212,2,0,149,21,1,82,130,2,57,97,2,213,1,0,150,20,1,213,1,0,150,20,1,0,212,2,0,150,2,0,212,2,0,150,2,169,43,2,123,48,3,214,0,0,151,19,2,103,46,65,84,38,47
2017-06-29T23:59:59Z,151,214,195,136,214,151,191,134,87,68,0,0,0,0,0,0,3,211,2,150,0,214,0,151,0,0,0,0,0,0,0,0,85,42,87,60,49,66,126,87,1,87,71,1,212,1,1,150,20,1,125,88,1,86,72,1,214,0,0,151,19,0,213,1,0,151,20,0,214,0,0,151,19,0,82,130,2,56,98,1,212,2,0,149,21,0,212,2,0,149,21,0,0,212,2,0,150,1,0,212,2,0,150,1,171,41,2,124,47,1,214,0,0,151,19,0,103,46,65,84,39,46
2017-06-30T23:59:59Z,152,216,196,136,216,152,193,134,85,67,0,0,0,0,0,0,3,213,2,150,0,214,0,151,0,0,0,0,0,0,0,0,85,42,89,58,49,68,128,88,0,87,72,0,215,1,0,151,20,0,128,88,0,87,72,0,216,0,0,152,19,0,215,1,0,152,20,0,216,0,0,152,19,0,82,131,3,56,98,2,216,0,0,152,19,0,216,0,0,152,19,0,0,213,3,0,150,2,0,213,3,0,150,2,170,43,3,123,48,2,216,0,0,152,19,0,104,46,66,85,39,46
2017-07-01T23:59:59Z,150,215,196,135,214,149,193,133,90,68,0,0,0,0,0,0,2,213,1,149,0,215,0,150,0,0,0,0,0,0,0,0,87,42,86,61,49,64,129,86,0,89,69,0,214,1,0,149,20,0,126,89,0,86,71,0,215,0,0,150,19,0,215,0,0,150,19,0,215,0,0,150,19,0,79,134,2,55,98,1,213,2,0,148,21,0,213,2,0,148,21,0,0,213,2,0,149,1,0,213,2,0,149,1,169,44,2,122,48,1,215,0,0,150,19,0,102,45,68,84,37,47
2017-07-02T23:59:59Z,151,217,198,136,217,151,195,134,89,68,0,0,0,0,0,0,3,214,2,150,0,217,0,151,0,0,0,0,0,0,0,0,87,43,87,60,49,64,129,88,0,88,70,0,215,2,0,149,20,0,129,88,0,88,71,0,217,0,0,151,18,0,216,1,0,150,19,0,216,1,0,150,19,0,83,132,2,57,98,1,216,1,0,150,19,0,216,1,0,150,19,0,0,215,2,0,150,1,0,215,2,0,150,1,172,43,2,123,47,1,217,0,0,151,18,0,105,45,67,84,37,47
2017-07-03T23:59:59Z,154,223,201,137,222,153,197,134,94,71,0,0,0,0,0,0,6,217,4,151,0,221,0,153,0,0,0,0,0,0,0,0,90,41,92,61,47,68,135,88,0,91,70,0,223,0,0,154,18,0,135,88,0,91,70,0,223,0,0,154,18,0,222,1,0,154,19,0,223,0,0,154,18,0,86,132,5,58,97,3,222,1,0,153,19,0,222,1,0,153,19,0,0,218,5,0,151,3,0,218,5,0,151,3,175,43,5,124,47,3,223,0,0,154,18,0,110,46,67,86,39,47
2017-07-04T23:59:59Z,155,223,202,139,223,155,198,137,89,69,0,0,0,0,0,0,4,219,3,153,0,223,0,155,0,0,0,0,0,0,0,0,89,42,91,60,48,68,132,91,0,89,73,1,221,1,0,153,19,1,132,91,0,89,73,1,220,2,0,152,20,1,220,2,0,152,20,1,221,2,0,153,20,1,85,135,3,57,100,3,220,2,0,152,20,1,220,2,0,152,20,1,0,220,3,0,153,3,0,220,3,0,153,3,175,44,3,124,48,3,223,0,0,155,18,1,109,47,67,87,39,47
2017-07-05T23:59:59Z,153,221,201,138,221,153,198,136,89,69,0,0,0,0,0,0,2,219,1,152,0,221,0,153,0,0,0,0,0,0,0,0,87,45,88,59,50,66,132,89,0,89,72,0,219,1,0,151,19,0,132,89,0,89,72,0,219,1,0,151,19,0,218,2,0,151,20,0,220,1,0,152,19,0,84,135,2,56,100,1,218,2,0,150,20,0,218,2,0,150,20,0,0,219,2,0,152,1,0,219,2,0,152,1,171,47,2,121,51,1,221,0,0,153,18,0,109,47,65,86,39,46
2017-07-06T23:59:59Z,152,218,196,136,218,152,190,132,90,70,0,0,0,0,0,0,4,214,2,150,0,214,0,150,0,0,0,0,0,0,0,0,84,44,89,59,49,67,130,87,1,89,70,1,216,0,1,151,18,1,130,87,1,89,70,1,217,0,0,151,18,0,217,0,0,151,18,0,218,0,0,152,18,0,82,132,4,56,98,2,216,1,0,150,19,0,216,1,0,150,19,0,0,214,4,0,150,2,0,214,4,0,150,2,167,45,5,121,49,3,218,0,0,152,18,0,108,45,65,86,38,46
2017-07-07T23:59:59Z,153,219,197,137,219,153,193,134,88,69,0,0,0,0,0,0,5,214,3,151,0,217,0,152,0,0,0,0,0,0,0,0,86,45,87,60,51,65,132,87,0,90,70,0,217,1,0,151,20,0,130,89,0,88,72,0,217,1,0,151,20,0,217,1,0,151,20,0,218,1,0,152,20,0,81,134,4,55,100,2,217,1,0,151,20,0,217,1,0,151,20,0,0,215,4,0,151,2,0,215,4,0,151,2,168,46,4,121,51,2,219,0,0,153,19,0,108,46,65,87,38,46
2017-07-08T23:59:59Z,152,220,197,136,220,152,194,134,91,69,0,0,0,0,0,0,4,216,2,150,0,220,0,152,0,0,0,0,0,0,0,0,87,44,88,60,50,66,130,90,0,89,71,0,218,1,0,150,19,0,131,89,0,90,71,0,219,0,0,151,18,0,219,0,0,151,18,0,220,0,0,152,18,0,83,133,4,57,98,2,218,2,0,150,20,0,218,1,0,150,19,0,0,216,4,0,150,2,0,216,4,0,150,2,171,44,4,122,49,2,220,0,0,152,18,0,109,45,66,86,37,47
2017-07-09T23:59:59Z,153,224,203,138,224,153,200,136,90,69,0,0,0,0,0,0,3,221,2,152,0,222,0,152,0,0,0,0,0,0,0,0,90,44,89,61,50,66,132,92,0,89,72,0,222,1,0,151,19,0,131,93,0,88,73,0,223,0,0,152,18,0,223,0,0,152,18,0,224,0,0,153,18,0,83,139,2,55,101,1,223,1,0,152,19,0,223,0,0,152,18,0,0,222,2,0,152,1,0,222,2,0,152,1,175,46,2,123,50,1,224,0,0,153,18,0,111,45,68,86,37,48
2017-07-10T23:59:59Z,152,219,199,137,219,152,196,135,87,69,0,0,0,0,0,0,3,216,2,151,0,219,0,152,0,0,0,0,0,0,0,0,91,40,87,62,47,66,130,89,0,88,71,0,218,0,0,151,18,0,129,90,0,87,72,0,218,0,0,151,18,0,218,0,0,151,18,0,219,0,0,152,18,0,84,133,2,56,99,1,217,2,0,150,20,0,217,1,0,150,19,0,0,217,2,0,151,1,0,217,2,0,151,1,172,44,2,122,49,1,219,0,0,152,18,0,107,45,67,85,37,48
2017-07-11T23:59:59Z,152,219,199,137,219,152,195,135,92,72,0,0,0,0,0,0,2,217,1,151,0,219,0,152,0,0,0,0,0,0,0,0,90,40,88,61,47,66,130,89,0,88,71,0,218,0,0,151,18,0,128,91,0,86,73,0,218,0,0,151,18,0,218,0,0,151,18,0,219,0,0,152,18,0,83,134,2,55,100,1,218,1,0,151,19,0,218,0,0,151,18,0,0,217,2,0,151,1,0,217,2,0,151,1,173,43,2,123,48,1,219,0,0,152,18,0,106,46,67,84,39,48
2017-07-12T23:59:59Z,153,221,201,138,219,152,197,135,92,72,0,0,0,0,0,0,2,219,1,152,0,219,0,152,0,0,0,0,0,0,0,0,91,41,88,61,49,67,130,91,0,87,73,0,219,1,0,151,20,0,129,92,0,86,74,0,219,1,0,151,20,0,219,1,0,151,20,0,220,1,0,152,20,0,84,135,2,55,101,1,219,2,0,151,21,0,219,1,0,151,20,0,0,219,2,0,152,1,0,219,2,0,152,1,174,44,2,123,50,1,221,0,0,153,19,0,107,46,68,85,38,49
2017-07-13T23:59:59Z,157,227,205,141,227,157,202,139,92,73,0,0,0,0,0,0,4,223,2,155,0,223,0,155,0,0,0,0,0,0,0,0,87,44,95,59,51,71,132,95,0,88,76,0,226,0,0,156,20,0,133,94,0,89,75,0,226,0,0,156,20,0,226,0,0,156,20,0,227,0,0,157,20,0,84,139,4,56,103,2,226,1,0,156,21,0,226,0,0,156,20,0,0,223,4,0,155,2,0,223,4,0,155,2,177,45,4,126,51,2,227,0,0,157,20,0,111,46,70,88,38,50
2017-07-14T23:59:59Z,155,224,202,139,223,154,200,138,93,74,0,0,0,0,0,0,4,220,2,153,0,222,0,154,0,0,0,0,0,0,0,0,89,40,94,60,50,70,130,94,0,87,75,0,222,1,0,153,22,0,129,95,0,86,76,0,222,1,0,153,22,0,222,1,0,153,22,0,223,1,0,154,22,0,83,137,4,55,102,2,222,2,0,153,23,0,222,1,0,153,22,0,0,220,4,0,153,2,0,220,4,0,153,2,176,43,4,125,51,2,224,0,0,155,21,0,107,47,70,85,40,50
2017-07-15T23:59:59Z,156,228,209,142,227,155,206,140,96,75,0,0,0,0,0,0,2,226,1,155,0,226,0,155,0,0,0,0,0,0,0,0,93,43,91,62,50,69,135,93,0,89,74,0,227,0,0,155,20,0,134,94,0,88,75,0,227,0,0,155,20,0,227,0,0,155,20,0,228,0,0,156,20,0,88,138,2,57,102,1,227,1,0,155,21,0,227,0,0,155,20,0,0,226,2,0,155,1,0,226,2,0,155,1,181,44,2,127,50,1,228,0,0,156,20,0,113,47,68,88,38,49
2017-07-16T23:59:59Z,157,228,209,143,228,157,206,141,92,72,0,0,0,0,0,0,2,226,1,156,0,226,1,156,0,0,0,0,0,0,0,0,92,45,90,62,50,69,136,91,1,90,74,1,226,0,1,155,20,1,135,92,1,89,75,1,226,0,1,155,20,1,225,0,1,154,20,1,226,0,1,155,20,1,90,135,3,59,101,2,226,1,1,155,21,1,226,0,1,155,20,1,0,225,3,0,155,2,0,225,3,0,155,2,181,43,3,128,49,2,228,0,0,157,20,0,112,50,66,89,40,48
2017-07-17T23:59:59Z,156,226,210,144,226,156,206,141,95,74,0,0,0,0,0,0,0,226,0,156,0,224,0,155,0,0,0,0,0,0,0,0,91,43,91,61,50,70,130,96,0,86,77,0,225,0,0,155,20,0,130,96,0,86,77,0,224,1,0,154,21,0,224,1,0,154,21,0,225,1,0,155,21,0,87,139,0,57,103,0,223,3,0,153,23,0,223,2,0,153,22,0,0,226,0,0,156,0,0,226,0,0,156,0,181,44,0,128,50,0,226,0,0,156,20,0,108,50,68,86,40,49
2017-07-18T23:59:59Z,156,227,211,144,227,156,208,142,90,71,0,0,0,0,0,0,1,226,1,156,0,227,0,156,0,0,0,0,0,0,0,0,93,44,89,62,51,67,134,93,0,89,74,0,225,1,0,154,21,0,134,93,0,89,74,0,226,0,0,155,20,0,225,0,0,154,20,0,226,0,1,156,20,1,91,136,0,60,100,0,225,2,0,154,22,0,225,1,0,154,21,0,0,227,0,0,156,0,0,227,0,0,156,0,183,43,0,129,49,0,227,0,0,156,20,0,110,50,67,87,40,48
2017-07-19T23:59:59Z,154,222,202,140,221,153,199,138,90,70,0,0,0,0,0,0,4,218,2,152,0,222,0,154,0,0,0,0,0,0,0,0,90,43,88,61,48,67,133,89,0,88,72,0,220,1,0,152,19,0,134,88,0,89,71,0,221,0,0,153,18,0,220,0,0,152,18,0,222,0,0,154,18,0,88,130,4,59,97,2,220,2,0,152,20,0,220,1,0,152,19,0,0,218,4,0,152,2,0,218,4,0,152,2,175,42,4,125,46,2,222,0,0,154,18,0,110,50,62,86,40,45
2017-07-20T23:59:59Z,155,224,204,141,224,155,201,139,87,69,0,0,0,0,0,0,4,220,2,153,0,222,0,154,0,0,0,0,0,0,0,0,93,41,89,62,47,67,135,89,0,89,72,0,222,1,0,153,19,0,136,88,0,90,72,0,223,0,0,154,18,0,221,1,0,152,19,0,223,1,0,154,19,0,93,127,4,62,96,2,222,2,0,153,20,0,222,1,0,153,19,0,0,220,4,0,153,2,0,220,4,0,153,2,179,40,4,127,45,2,224,0,0,155,18,0,111,51,62,86,41,45
2017-07-21T23:59:59Z,152,220,202,139,220,152,199,137,89,70,0,0,0,0,0,0,0,220,0,152,0,220,0,152,0,0,0,0,0,0,0,0,91,44,84,61,47,65,132,88,0,87,70,0,219,0,0,151,17,0,131,89,0,86,71,0,219,0,0,151,17,0,218,0,0,150,17,0,220,0,0,152,17,0,89,131,0,58,97,0,219,1,0,151,18,0,219,0,0,151,17,0,0,220,0,0,152,0,0,220,0,0,152,0,177,42,0,125,45,0,220,0,0,152,17,0,106,52,62,82,42,45
2017-07-22T23:59:59Z,156,224,203,141,224,156,199,138,93,74,0,0,0,0,0,0,3,221,2,155,0,222,0,155,0,0,0,0,0,0,0,0,88,47,88,59,50,67,133,91,0,88,73,0,221,2,0,153,19,0,134,90,0,89,72,0,222,1,0,154,18,0,221,1,0,153,18,0,223,1,0,155,18,0,89,133,2,59,99,1,222,2,0,154,19,0,222,1,0,154,18,0,0,222,2,0,155,1,0,222,2,0,155,1,177,44,2,126,47,1,224,0,0,156,17,0,107,55,62,83,45,45
2017-07-23T23:59:59Z,159,229,207,143,229,159,204,141,93,73,0,0,0,0,0,0,2,227,1,158,0,227,0,158,0,0,0,0,0,0,0,0,92,47,90,62,50,69,135,94,0,90,74,0,226,3,0,157,19,0,135,94,0,90,74,0,227,2,0,158,18,0,226,2,0,157,18,0,226,3,0,157,19,0,91,136,2,60,101,1,226,3,0,157,19,0,226,3,0,157,19,0,0,227,2,0,158,1,0,227,2,0,158,1,183,44,2,130,47,1,229,0,0,159,17,0,111,54,64,86,44,46
2017-07-24T23:59:59Z,158,229,207,142,229,158,204,140,97,74,0,0,0,0,0,0,2,227,1,157,0,229,0,158,0,0,0,0,0,0,0,0,94,44,91,63,48,69,136,93,0,90,74,0,228,1,0,157,19,0,136,93,0,90,74,0,229,0,0,158,18,0,228,0,0,158,18,0,229,0,0,158,18,0,92,135,2,60,101,1,220,9,0,153,26,0,228,1,0,157,19,0,0,227,2,0,157,1,0,227,2,0,157,1,175,52,2,122,55,1,229,0,0,158,18,0,109,53,67,85,44,48
2017-07-25T23:59:59Z,156,224,202,140,223,155,199,138,97,75,0,0,0,0,0,0,4,220,2,155,0,224,0,156,0,0,0,0,0,0,0,0,87,46,91,60,50,69,133,91,0,89,74,0,224,0,0,156,19,0,134,90,0,90,73,0,224,0,0,156,19,0,223,1,0,155,20,0,223,1,0,155,20,0,87,134,3,59,101,1,223,1,0,155,20,0,223,1,0,155,20,0,0,221,3,0,155,1,0,221,3,0,155,1,177,44,3,127,49,1,224,0,0,156,19,0,108,51,65,85,42,47
2017-07-26T23:59:59Z,158,225,202,141,225,158,199,139,89,71,0,0,0,0,0,0,4,221,2,156,0,225,0,158,0,0,0,0,0,0,0,0,90,45,90,61,50,69,136,89,0,91,74,0,224,1,0,157,20,0,135,90,0,90,75,0,224,1,0,157,20,0,224,1,0,157,20,0,224,1,0,157,20,0,87,134,4,58,103,2,225,0,0,158,19,0,225,0,0,158,19,0,0,221,4,0,156,2,0,221,4,0,156,2,176,45,4,127,50,2,225,0,0,158,19,0,109,52,64,86,43,47
2017-07-27T23:59:59Z,159,225,202,142,225,159,199,140,89,71,0,0,0,0,0,0,4,221,2,157,0,223,0,158,0,0,0,0,0,0,0,0,90,46,89,62,51,68,135,90,0,91,75,0,223,2,0,157,21,0,135,90,0,91,76,0,223,2,0,157,21,0,223,2,0,157,21,0,223,2,0,157,21,0,87,134,4,59,104,2,223,2,0,157,21,0,223,2,0,157,21,0,0,221,4,0,157,2,0,221,4,0,157,2,174,47,4,126,52,2,225,0,0,159,19,0,107,54,64,85,44,47
2017-07-28T23:59:59Z,157,221,200,141,221,157,197,139,91,73,0,0,0,0,0,0,3,218,2,156,0,221,0,157,0,0,0,0,0,0,0,0,87,45,89,60,50,69,131,90,0,89,75,0,220,1,0,156,20,0,131,90,0,89,75,0,220,1,0,156,20,0,220,1,0,156,20,0,220,1,0,156,20,0,87,132,2,59,102,1,220,1,0,156,20,0,220,1,0,156,20,0,0,219,2,0,156,1,0,219,2,0,156,1,175,44,2,127,50,1,221,0,0,157,19,0,103,54,64,83,44,47
2017-07-29T23:59:59Z,157,224,204,142,223,157,201,140,91,72,0,0,0,0,0,0,2,222,1,156,0,223,0,157,0,0,0,0,0,0,0,0,90,43,91,62,49,70,133,90,1,91,74,1,223,0,1,157,19,1,133,90,1,91,74,1,223,0,1,157,19,1,223,0,1,157,19,1,223,0,1,157,19,1,89,132,3,61,100,2,222,1,1,156,20,1,222,1,1,156,20,1,0,221,3,0,156,2,0,221,3,0,156,2,180,42,2,130,48,1,224,0,0,157,19,0,108,50,66,86,41,48
2017-07-30T23:59:59Z,158,225,205,143,225,158,202,141,95,76,0,0,0,0,0,0,3,222,2,157,0,221,0,156,0,0,0,0,0,0,0,0,89,45,91,61,50,70,133,92,0,90,76,0,223,2,0,156,21,0,132,93,0,89,77,0,225,0,0,158,19,0,225,0,0,158,19,0,225,0,0,158,19,0,88,135,2,59,103,1,224,1,0,157,20,0,224,1,0,157,20,0,0,223,2,0,157,1,0,223,2,0,157,1,180,43,2,130,49,1,225,0,0,158,19,0,107,52,66,85,43,48
2017-07-31T23:59:59Z,158,227,207,143,227,158,201,140,92,73,0,0,0,0,0,0,2,225,1,157,0,225,0,157,0,0,0,0,0,0,0,0,95,41,91,64,48,70,136,91,0,91,75,0,227,0,0,158,20,0,136,91,0,91,75,0,227,0,0,158,20,0,227,0,0,158,20,0,227,0,0,158,20,0,93,132,2,62,100,1,227,0,0,158,20,0,227,0,0,158,20,0,0,225,2,0,157,1,0,225,2,0,157,1,184,41,2,132,48,1,227,0,0,158,20,0,110,50,67,86,42,49
2017-08-01T23:59:59Z,159,231,209,143,229,159,204,141,93,72,0,0,0,0,0,0,4,227,2,157,0,231,0,159,0,0,0,0,0,0,0,0,95,42,94,64,49,71,136,95,0,91,77,0,229,2,0,158,21,0,135,96,0,90,78,0,229,2,0,158,21,0,229,2,0,158,21,0,229,2,0,158,21,0,92,135,4,61,101,2,228,3,0,157,22,0,228,3,0,157,22,0,0,227,4,0,157,2,0,227,4,0,157,2,184,43,4,131,50,2,231,0,0,159,20,0,113,51,67,88,43,49
2017-08-02T23:59:59Z,161,232,210,145,232,161,205,142,88,70,0,0,0,0,0,0,5,227,3,159,0,228,0,159,0,0,0,0,0,0,0,0,93,46,93,62,52,71,139,93,0,92,77,0,230,2,0,159,22,0,140,92,0,93,76,0,231,1,0,160,21,0,230,2,0,159,22,0,230,2,0,159,22,0,92,136,4,61,103,2,230,2,0,159,22,0,230,2,0,159,22,0,0,228,4,0,159,2,0,228,4,0,159,2,184,44,4,132,50,2,232,0,0,161,20,0,113,54,65,88,44,47
2017-08-03T23:59:59Z,158,226,208,143,226,158,205,141,90,71,0,0,0,0,0,0,2,224,1,157,0,226,0,158,0,0,0,0,0,0,0,0,92,45,89,62,51,68,136,90,0,91,74,0,224,1,0,156,21,0,136,89,0,91,73,0,225,0,0,157,20,0,224,1,0,156,21,0,224,1,0,156,21,0,93,131,2,62,100,1,224,1,0,156,21,0,224,1,0,156,21,0,0,224,2,0,157,1,0,224,2,0,157,1,182,42,2,130,49,1,226,0,0,158,20,0,109,53,64,86,43,46
2017-08-04T23:59:59Z,158,226,210,144,226,158,207,142,93,73,0,0,0,0,0,0,2,224,1,157,0,224,0,157,0,0,0,0,0,0,0,0,96,44,86,66,50,67,136,90,0,92,75,0,225,0,0,157,20,0,134,91,0,90,75,0,225,0,0,157,20,0,225,0,0,157,20,0,225,0,0,157,20,0,94,132,0,63,101,0,225,1,0,157,21,0,224,1,0,156,21,0,0,226,0,0,158,0,0,226,0,0,158,0,183,43,0,130,50,0,226,0,0,158,20,0,109,53,64,87,44,46
2017-08-05T23:59:59Z,158,226,210,144,224,157,206,142,92,73,0,0,0,0,0,0,2,224,1,157,0,226,0,158,0,0,0,0,0,0,0,0,93,47,86,63,52,66,134,92,0,90,75,0,223,3,0,156,22,0,133,92,0,89,75,0,223,2,0,156,21,0,222,3,0,155,22,0,222,3,0,155,22,0,94,132,0,62,101,0,223,3,0,156,22,0,221,3,1,155,22,1,0,225,1,0,158,1,0,225,1,0,158,1,184,42,0,131,49,0,226,0,0,158,20,0,109,54,63,86,44,45
2017-08-06T23:59:58Z,160,230,212,145,230,160,209,143,89,70,0,0,0,0,0,0,4,226,2,158,0,230,0,160,0,0,0,0,0,0,0,0,97,45,88,65,51,67,140,90,0,93,74,0,229,1,0,159,21,0,138,91,0,91,75,0,228,1,0,158,21,0,229,0,0,159,20,0,229,0,0,159,20,0,95,133,2,62,102,1,230,0,0,160,20,0,229,0,0,159,20,0,0,228,2,0,159,1,0,228,2,0,159,1,185,43,2,131,50,1,230,0,0,160,20,0,114,53,63,89,43,45
2017-08-07T23:59:59Z,160,230,212,145,229,159,209,143,89,71,0,0,0,0,0,0,4,226,2,158,0,226,0,158,0,0,0,0,0,0,0,0,95,47,88,64,52,67,140,90,0,93,74,0,229,1,0,159,21,0,140,89,0,93,73,0,229,0,0,159,20,0,228,1,0,158,21,0,228,1,0,158,21,0,97,131,2,64,100,1,229,1,0,159,21,0,229,1,0,159,21,0,0,228,2,0,159,1,0,228,2,0,159,1,185,43,2,131,50,1,230,0,0,160,20,0,114,53,63,90,43,45
2017-08-08T23:59:59Z,160,231,211,144,231,160,208,142,91,72,0,0,0,0,0,0,6,225,3,157,0,231,0,160,0,0,0,0,0,0,0,0,95,48,88,64,52,67,143,88,0,94,73,0,230,1,0,159,21,0,142,88,0,93,73,0,229,1,0,158,21,0,229,1,0,158,21,0,229,1,0,158,21,0,96,131,4,63,100,2,230,1,0,159,21,0,230,1,0,159,21,0,0,227,4,0,158,2,0,227,4,0,158,2,183,44,4,130,50,2,231,0,0,160,20,0,116,54,61,89,44,44
2017-08-09T23:59:59Z,160,231,210,144,231,160,206,141,91,72,0,0,0,0,0,0,6,224,3,157,0,231,0,160,0,0,0,0,0,0,0,0,96,45,89,64,51,68,140,91,0,92,74,0,229,2,0,159,22,0,139,91,0,91,74,0,228,2,0,158,22,0,228,2,0,158,22,0,228,2,0,158,22,0,95,132,4,62,100,2,231,0,0,160,21,0,231,0,0,160,21,0,0,227,4,0,158,2,0,227,4,0,158,2,184,43,4,131,50,2,231,0,0,160,21,0,115,54,62,89,44,45
2017-08-10T23:59:59Z,161,232,213,146,232,161,208,142,90,72,0,0,0,0,0,0,4,227,2,159,0,232,0,161,0,0,0,0,0,0,0,0,94,49,88,62,53,68,142,90,0,93,74,0,231,1,0,160,21,0,141,90,0,92,74,0,230,1,0,159,21,0,230,1,0,159,21,0,230,1,0,159,21,0,96,134,2,62,102,1,232,0,0,161,20,0,232,0,0,161,20,0,0,230,2,0,160,1,0,230,2,0,160,1,185,45,2,131,51,1,232,0,0,161,21,0,113,58,61,87,47,45
2017-08-11T23:59:59Z,159,228,209,144,228,159,207,142,93,74,0,0,0,0,0,0,4,223,2,157,0,226,0,158,0,0,0,0,0,0,0,0,93,46,88,62,51,68,138,90,0,91,74,0,227,1,0,158,21,0,138,89,0,91,73,0,227,0,0,158,20,0,227,0,0,158,20,0,227,0,0,158,20,0,96,130,2,63,99,1,227,1,0,158,21,0,227,1,0,158,21,0,0,226,2,0,158,1,0,226,2,0,158,1,185,41,2,132,48,1,228,0,0,159,21,0,109,57,62,85,48,45
2017-08-12T23:59:59Z,158,228,209,143,227,157,207,141,89,71,0,0,0,0,0,0,4,223,2,156,0,226,0,157,0,0,0,0,0,0,0,0,92,47,88,61,51,68,139,89,0,91,73,0,228,0,0,158,20,0,137,90,0,89,74,0,227,0,0,157,20,0,227,0,0,157,20,0,227,0,0,157,20,0,93,133,2,60,101,1,227,1,0,157,21,0,227,1,0,157,21,0,0,226,2,0,157,1,0,226,2,0,157,1,183,43,2,130,49,1,228,0,0,158,20,0,111,56,61,86,46,44
2017-08-13T23:59:59Z,163,235,213,146,234,162,211,144,93,74,0,0,0,0,0,0,6,228,3,160,0,233,0,162,0,0,0,0,0,0,0,0,95,47,92,63,52,71,143,92,0,94,76,1,235,0,0,163,21,1,143,91,0,94,75,1,233,1,0,161,22,1,233,1,0,161,22,1,233,1,0,161,22,1,95,136,4,62,103,3,234,1,0,162,22,1,234,1,0,162,22,1,0,231,4,0,161,3,0,231,4,0,161,3,184,47,4,130,53,3,235,0,0,163,21,1,115,57,63,90,46,45
2017-08-14T23:59:59Z,167,240,215,149,240,167,212,146,93,75,0,0,0,0,0,0,7,232,4,164,0,240,0,167,0,0,0,0,0,0,0,0,98,51,90,65,56,70,149,91,0,99,76,1,237,3,0,165,23,1,148,91,0,98,76,1,237,2,0,165,22,1,236,3,0,164,23,1,236,3,0,164,23,1,99,137,4,65,105,3,237,3,0,165,23,1,236,3,1,164,23,2,0,236,4,0,165,3,0,236,4,0,165,3,187,49,4,134,55,3,240,0,0,167,21,1,121,57,62,93,47,45
2017-08-15T23:59:59Z,165,239,214,147,238,165,211,144,96,76,0,0,0,0,0,0,7,231,4,162,0,239,0,165,0,0,0,0,0,0,0,0,96,51,90,63,56,71,148,91,0,98,76,1,238,1,0,165,22,1,147,91,0,97,76,1,237,1,0,164,22,1,237,1,0,164,22,1,237,1,0,164,22,1,96,139,4,62,106,3,238,1,0,165,22,1,237,1,1,164,22,2,0,235,4,0,163,3,0,235,4,0,163,3,186,49,4,132,55,3,239,0,0,165,21,1,119,58,62,91,47,45
2017-08-16T23:59:59Z,163,233,213,147,233,163,210,145,92,75,0,0,0,0,0,0,2,231,1,162,0,233,0,163,0,0,0,0,0,0,0,0,99,51,83,66,57,68,148,85,0,99,73,1,232,1,0,163,23,1,144,88,0,96,75,1,231,1,0,162,23,1,231,1,0,162,23,1,231,1,0,162,23,1,98,135,0,64,104,1,232,1,0,163,23,1,232,1,0,163,23,1,0,233,0,0,163,1,0,233,0,0,163,1,184,49,0,132,56,1,233,0,0,163,22,1,117,55,61,92,44,45
2017-08-17T23:59:59Z,164,236,214,147,235,163,211,145,91,74,0,0,0,0,0,0,5,231,3,162,0,236,0,164,0,0,0,0,0,0,0,0,99,52,85,65,57,68,150,86,0,99,73,1,235,1,0,163,22,1,149,86,0,98,73,1,235,0,0,163,21,1,235,0,0,163,21,1,235,0,0,163,21,1,99,135,2,64,104,2,235,1,0,163,22,1,235,1,0,163,22,1,0,234,2,0,163,2,0,234,2,0,163,2,185,49,2,132,55,2,236,0,0,164,21,1,121,54,61,92,43,45